Cambridge, MN

12:07 AM CDT on June 23, 2017 (GMT -0500)
Cambridge Municipal

Weather History for KCBG - February, 2014

Change the Weather History Date:

Friday, February 28, 2014

  Actual Average Record
Temperature  
Mean Temperature 0 °F -  
Max Temperature 14 °F 32 °F 53 °F (1985)
Min Temperature -14 °F 14 °F -28 °F (1962)
Degree Days  
Heating Degree Days 65    
Moisture  
Dew Point -8 °F    
Average Humidity 60    
Maximum Humidity 67    
Minimum Humidity 52    
Precipitation  
Precipitation 0.00 in - - ()
Sea Level Pressure  
Sea Level Pressure 29.95 in    
Wind  
Wind Speed 5 mph (South)    
Max Wind Speed 12 mph    
Max Gust Speed 17 mph    
Visibility 10 miles    
Events Snow    
Averages and records for this station are not official NWS values.
T = Trace of Precipitation, MM = Missing Value Source: NWS Daily Summary

Daily Weather History Graph

Daily Weather History Graph

Search for Another Location

Airport or City:

Trip Planner

Search our weather history database for the weather conditions in past years. The results will help you decide how hot, cold, wet, or windy it might be!

Date:

Astronomy

Feb. 28, 2014 Rise Set
Actual Time 6:53 AM CST 5:58 PM CST
Civil Twilight 6:23 AM CST 6:28 PM CST
Nautical Twilight 5:49 AM CST 7:02 PM CST
Astronomical Twilight 5:14 AM CST 7:37 PM CST
Moon 6:08 AM CST (2/28) 5:37 PM CST (2/28)
Length of Visible Light 12h 05m
Length of Day
11h 05m
Waning Crescent, 1% of the Moon is Illuminated
Feb 28
Waning Crescent
Mar 1
New
Mar 8
First Quarter
Mar 16
Full
Mar 23
Last Quarter

Hourly Weather History & Observations

Time (CST) Temp. Windchill Dew Point Humidity Pressure Visibility Wind Dir Wind Speed Gust Speed Precip Events Conditions
12:15 AM -14.8 °F - -25.6 °F 58% 30.03 in 10.0 mi Calm Calm - N/A   Overcast
12:36 AM -13.0 °F - -23.8 °F 59% 30.02 in 10.0 mi Calm Calm - N/A   Overcast
12:55 AM -11.2 °F - -22.0 °F 59% 30.02 in 10.0 mi Calm Calm - N/A   Overcast
1:15 AM -9.4 °F - -20.2 °F 59% 30.02 in 10.0 mi Calm Calm - N/A   Overcast
1:36 AM -7.6 °F -18.8 °F -18.4 °F 59% 30.01 in 10.0 mi SE 4.6 mph - N/A   Overcast
1:55 AM -7.6 °F -18.8 °F -18.4 °F 59% 30.00 in 10.0 mi SE 4.6 mph - N/A   Overcast
2:16 AM -5.8 °F -14.5 °F -16.6 °F 60% 29.99 in 10.0 mi SE 3.5 mph - N/A   Overcast
2:36 AM -5.8 °F -16.7 °F -16.6 °F 60% 29.98 in 10.0 mi SE 4.6 mph - N/A   Overcast
2:55 AM -5.8 °F -14.5 °F -16.6 °F 60% 29.98 in 10.0 mi SE 3.5 mph - N/A   Overcast
3:16 AM -5.8 °F -16.7 °F -16.6 °F 60% 29.97 in 10.0 mi SE 4.6 mph - N/A   Overcast
3:35 AM -5.8 °F -16.7 °F -16.6 °F 60% 29.95 in 10.0 mi SE 4.6 mph - N/A   Overcast
3:55 AM -5.8 °F -14.5 °F -16.6 °F 60% 29.95 in 10.0 mi ESE 3.5 mph - N/A   Scattered Clouds
4:16 AM -5.8 °F -14.5 °F -16.6 °F 60% 29.94 in 10.0 mi ESE 3.5 mph - N/A   Clear
4:35 AM -7.6 °F -16.5 °F -18.4 °F 59% 29.94 in 10.0 mi SE 3.5 mph - N/A   Clear
4:55 AM -5.8 °F -18.4 °F -16.6 °F 60% 29.93 in 10.0 mi ESE 5.8 mph - N/A   Clear
5:16 AM -7.6 °F -18.8 °F -18.4 °F 59% 29.93 in 10.0 mi ESE 4.6 mph - N/A   Clear
5:35 AM -7.6 °F -18.8 °F -18.4 °F 59% 29.93 in 10.0 mi ESE 4.6 mph - N/A   Clear
5:56 AM -7.6 °F -18.8 °F -18.4 °F 59% 29.92 in 10.0 mi SE 4.6 mph - N/A   Clear
6:16 AM -7.6 °F -16.5 °F -18.4 °F 59% 29.93 in 10.0 mi ESE 3.5 mph - N/A   Clear
6:35 AM -7.6 °F -16.5 °F -18.4 °F 59% 29.92 in 10.0 mi ESE 3.5 mph - N/A   Scattered Clouds
6:56 AM -7.6 °F -18.8 °F -18.4 °F 59% 29.91 in 10.0 mi ESE 4.6 mph - N/A   Mostly Cloudy
7:15 AM -5.8 °F -18.4 °F -16.6 °F 60% 29.91 in 10.0 mi ESE 5.8 mph - N/A   Overcast
7:35 AM -5.8 °F -18.4 °F -16.6 °F 60% 29.91 in 10.0 mi SE 5.8 mph - N/A   Overcast
7:56 AM -5.8 °F -18.4 °F -16.6 °F 60% 29.90 in 10.0 mi SE 5.8 mph - N/A   Overcast
8:15 AM -4.0 °F -16.3 °F -16.6 °F 55% 29.91 in 10.0 mi SE 5.8 mph - N/A   Overcast
8:36 AM -2.2 °F -15.6 °F -14.8 °F 55% 29.90 in 10.0 mi SE 6.9 mph - N/A   Overcast
8:55 AM -2.2 °F -14.2 °F -14.8 °F 55% 29.89 in 10.0 mi SE 5.8 mph - N/A   Overcast
9:15 AM -0.4 °F -14.7 °F -13.0 °F 55% 29.89 in 10.0 mi SE 8.1 mph - N/A   Overcast
9:36 AM -0.4 °F -13.4 °F -11.2 °F 60% 29.89 in 10.0 mi SE 6.9 mph - N/A   Overcast
9:55 AM 1.4 °F -9.9 °F -11.2 °F 56% 29.88 in 10.0 mi SE 5.8 mph - N/A   Overcast
10:16 AM 1.4 °F -13.5 °F -9.4 °F 61% 29.87 in 10.0 mi SE 9.2 mph - N/A   Scattered Clouds
10:36 AM 3.2 °F -9.1 °F -9.4 °F 56% 29.87 in 10.0 mi SE 6.9 mph - N/A   Clear
10:55 AM 5.0 °F -9.1 °F -7.6 °F 56% 29.87 in 10.0 mi SSE 9.2 mph - N/A   Clear
11:16 AM 6.8 °F -6.9 °F -5.8 °F 56% 29.87 in 10.0 mi South 9.2 mph - N/A   Clear
11:36 AM 6.8 °F -6.9 °F -5.8 °F 56% 29.87 in 10.0 mi SSE 9.2 mph - N/A   Clear
11:55 AM 8.6 °F -1.3 °F -5.8 °F 52% 29.87 in 10.0 mi SSE 5.8 mph - N/A   Clear
12:16 PM 8.6 °F -5.5 °F -4.0 °F 57% 29.86 in 10.0 mi South 10.4 mph - N/A   Clear
12:36 PM 10.4 °F -4.1 °F -2.2 °F 57% 29.86 in 10.0 mi South 11.5 mph - N/A   Clear
12:55 PM 10.4 °F -3.3 °F -2.2 °F 57% 29.86 in 10.0 mi South 10.4 mph - N/A   Clear
1:16 PM 10.4 °F -2.4 °F -2.2 °F 57% 29.86 in 10.0 mi SSW 9.2 mph 16.1 mph N/A   Clear
1:35 PM 12.2 °F -0.2 °F -0.4 °F 57% 29.86 in 10.0 mi SW 9.2 mph - N/A   Clear
1:55 PM 12.2 °F 0.7 °F -0.4 °F 57% 29.86 in 10.0 mi SSW 8.1 mph - N/A   Scattered Clouds
2:16 PM 12.2 °F 0.7 °F -0.4 °F 57% 29.86 in 10.0 mi WSW 8.1 mph - N/A   Mostly Cloudy
2:35 PM 12.2 °F 1.7 °F 1.4 °F 62% 29.87 in 10.0 mi WSW 6.9 mph - N/A   Overcast
2:56 PM 12.2 °F 1.7 °F 1.4 °F 62% 29.87 in 10.0 mi SW 6.9 mph - N/A   Overcast
3:16 PM 14.0 °F 5.1 °F 1.4 °F 57% 29.88 in 10.0 mi SW 5.8 mph - N/A   Overcast
3:35 PM 14.0 °F 3.9 °F 1.4 °F 57% 29.88 in 10.0 mi West 6.9 mph - N/A   Overcast
3:56 PM 12.2 °F 1.7 °F 1.4 °F 62% 29.89 in 10.0 mi West 6.9 mph - N/A Snow Light Snow
4:16 PM 12.2 °F 0.7 °F 1.4 °F 62% 29.90 in 10.0 mi West 8.1 mph - N/A   Overcast
4:35 PM 12.2 °F 0.7 °F 1.4 °F 62% 29.91 in 10.0 mi WNW 8.1 mph - N/A Snow Light Snow
4:56 PM 12.2 °F 0.7 °F 1.4 °F 62% 29.92 in 10.0 mi WNW 8.1 mph - N/A Snow Light Snow
5:15 PM 12.2 °F 0.7 °F 1.4 °F 62% 29.93 in 10.0 mi WNW 8.1 mph - N/A Snow Light Snow
5:35 PM 12.2 °F 4.3 °F 1.4 °F 62% 29.94 in 10.0 mi West 4.6 mph - N/A   Overcast
5:56 PM 12.2 °F -0.2 °F 1.4 °F 62% 29.94 in 10.0 mi West 9.2 mph - N/A Snow Light Snow
6:15 PM 10.4 °F -1.5 °F 1.4 °F 67% 29.95 in 10.0 mi West 8.1 mph - N/A   Clear
6:35 PM 10.4 °F -0.4 °F -0.4 °F 62% 29.97 in 10.0 mi WNW 6.9 mph - N/A   Clear
6:56 PM 10.4 °F -0.4 °F -0.4 °F 62% 29.98 in 10.0 mi WNW 6.9 mph - N/A   Clear
7:15 PM 8.6 °F -1.3 °F -0.4 °F 67% 29.99 in 10.0 mi WNW 5.8 mph - N/A   Clear
7:35 PM 8.6 °F 2.0 °F -0.4 °F 67% 30.00 in 10.0 mi WNW 3.5 mph - N/A   Clear
7:56 PM 8.6 °F - -2.2 °F 62% 30.00 in 10.0 mi Calm Calm - N/A   Clear
8:15 PM 8.6 °F - -2.2 °F 62% 30.00 in 10.0 mi Calm Calm - N/A   Clear
8:35 PM 8.6 °F - -0.4 °F 67% 30.00 in 10.0 mi Calm Calm - N/A   Scattered Clouds
8:56 PM 6.8 °F - -2.2 °F 67% 30.02 in 10.0 mi Calm Calm - N/A   Mostly Cloudy
9:15 PM 8.6 °F - -0.4 °F 67% 30.03 in 10.0 mi Calm Calm - N/A   Mostly Cloudy
9:36 PM 10.4 °F -1.5 °F -0.4 °F 62% 30.04 in 10.0 mi WNW 8.1 mph - N/A   Mostly Cloudy
9:56 PM 10.4 °F -3.3 °F -0.4 °F 62% 30.06 in 10.0 mi WNW 10.4 mph - N/A   Scattered Clouds
10:15 PM 10.4 °F -2.4 °F -0.4 °F 62% 30.07 in 10.0 mi NW 9.2 mph - N/A   Scattered Clouds
10:36 PM 8.6 °F -5.5 °F -0.4 °F 67% 30.09 in 10.0 mi NW 10.4 mph - N/A   Clear
10:56 PM 8.6 °F -4.7 °F -2.2 °F 62% 30.11 in 10.0 mi NW 9.2 mph 17.3 mph N/A   Clear
11:15 PM 8.6 °F -3.7 °F -2.2 °F 62% 30.13 in 10.0 mi NNW 8.1 mph 17.3 mph N/A   Clear
11:36 PM 6.8 °F -7.8 °F -4.0 °F 61% 30.14 in 10.0 mi NNW 10.4 mph - N/A   Clear
11:56 PM 6.8 °F -8.6 °F -5.8 °F 56% 30.15 in 10.0 mi NW 11.5 mph 17.3 mph N/A   Clear